| 
				
				
				
					
						
					 | 
				
				
				
					
					
					Asteroid 2014 TV
					
					
					
					
						
					
					
						
							(Preview)
						
						
						
						
							
						
							
								The 37 - 82 metre wide asteroid 2014 TV will make a close pass (4.5 lunar distances, 0.0115 AU) travelling at 12.19 km/second, to the Earth-Moon system on the 18th October 2014 @ 11:41 UT ±00:01.  See more The Lunar Distance (LD), the distance between Earth and the Moon, equals 384,401 km, (or 0.00256 A... 
							 
							
						 
						
					
				 | 
				
					
						Blobrana
					 | 
				
				
					
						0
					 | 
				
				
				
					
						
					 | 
				
				
					
						
					 | 
				
			
		
			
			
				
				
					
						 
					 | 
				
				
				
					
						
					 | 
				
				
				
					
					
					Asteroid 2014 TR57
					
					
					
					
						
					
					
						
							(Preview)
						
						
						
						
							
						
							
								Orbital elements:
2014 TR57                                                Earth MOID = 0.0241 AU
Epoch 2014 Dec. 9.0 TT = JDT 2457000.5                  MPC
M  25.10025              (2000.0)            P               Q
n   0.39995979     Peri.    8.45589     +0.97703703     -0.21304500
a   1.8244214      Node     3.84949     +0.19256137     +0.87639625
e   0.4390088      Incl.    2.76146     +0.09120721     +0.43190444
P   2.46           H   25.2           G   0.15           U...        
							 
							
						 
						
					
				 | 
				
					
						Blobrana
					 | 
				
				
					
						0
					 | 
				
				
				
					
						
					 | 
				
				
					
						
					 | 
				
			
		
			
			
				
				
					
						 
					 | 
				
				
				
					
						
					 | 
				
				
				
					
					
					Asteroid 2014 TC36
					
					
					
					
						
					
					
						
							(Preview)
						
						
						
						
							
						
							
								The 25 - 57 metre wide asteroid 2014 TC36 made a close pass (13.4 lunar distances, 0.0344 AU) travelling at 8.88 km/second, to the Earth-Moon system on the 14th October 2014 @ 18:58 UT ±00:01.  See more The Lunar Distance (LD), the distance between Earth and the Moon, equals 384,401 km, (or 0.00256 AU)... 
							 
							
						 
						
					
				 | 
				
					
						Blobrana
					 | 
				
				
					
						0
					 | 
				
				
				
					
						
					 | 
				
				
					
						
					 | 
				
			
		
			
			
				
				
					
						 
					 | 
				
				
				
					
						
					 | 
				
				
				
					
					
					Asteroid 2014 SN260
					
					
					
					
						
					
					
						
							(Preview)
						
						
						
						
							
						
							
								The 33 - 75 metre wide asteroid 2014 SN260 will make a close pass (25.9 lunar distances, 0.0666 AU) travelling at 9.58 km/second, to the Earth-Moon system on the 17th October 2014 @ 08:25 UT ±00:04.  See more The Lunar Distance (LD), the distance between Earth and the Moon, equals 384,401 km, (or 0.002...  
							 
							
						 
						
					
				 | 
				
					
						Blobrana
					 | 
				
				
					
						0
					 | 
				
				
				
					
						
					 | 
				
				
					
						
					 | 
				
			
		
			
			
				
				
					
						 
					 | 
				
				
				
					
						
					 | 
				
				
				
					
					
					Kuiper Belt Object 0720090F
					
					
					
					
						
					
					
						
							(Preview)
						
						
						
						
							
						
							
								Potential Kuiper Belt Target for New Horizons Pluto Mission Read more 
							 
							
						 
						
					
				 | 
				
					
						Blobrana
					 | 
				
				
					
						1
					 | 
				
				
				
					
						
					 | 
				
				
					
						
					 | 
				
			
		
			
			
				
				
					
						 
					 | 
				
				
				
					
						
					 | 
				
				
				
					
					
					Asteroid 2014 SL260
					
					
					
					
						
					
					
						
							(Preview)
						
						
						
						
							
						
							
								The 32 - 71 metre wide asteroid 2014 SL260 will make a close pass (32.2 lunar distances, 0.0829 AU) travelling at 6.31 km/second, to the Earth-Moon system on the 15th October 2014 @ 22:16 UT ±00:04.  See more The Lunar Distance (LD), the distance between Earth and the Moon, equals 384,401 km, (or 0.002...  
							 
							
						 
						
					
				 | 
				
					
						Blobrana
					 | 
				
				
					
						0
					 | 
				
				
				
					
						
					 | 
				
				
					
						
					 | 
				
			
		
			
			
				
				
					
						 
					 | 
				
				
				
					
						
					 | 
				
				
				
					
					
					Asteroid 2007 SW2
					
					
					
					
						
					
					
						
							(Preview)
						
						
						
						
							
						
							
								The 140 - 310 metre wide asteroid 2007 SW2 will make a close pass (65.9 lunar distances, 0.1692 AU) travelling at 17.47 km/second, to the Earth-Moon system on the 14th October 2014 @ 20:22 UT ±00:01.  See more The Lunar Distance (LD), the distance between Earth and the Moon, equals 384,401 km, (or 0.00...  
							 
							
						 
						
					
				 | 
				
					
						Blobrana
					 | 
				
				
					
						0
					 | 
				
				
				
					
						
					 | 
				
				
					
						
					 | 
				
			
		
			
			
				
				
					
						 
					 | 
				
				
				
					
						
					 | 
				
				
				
					
					
					Asteroid 2014 TY33
					
					
					
					
						
					
					
						
							(Preview)
						
						
						
						
							
						
							
								Orbital elements:
2014 TY33                                           PHA, Earth MOID = 0.0453 AU
Epoch 2014 Dec. 9.0 TT = JDT 2457000.5                  MPC
M  34.63573              (2000.0)            P               Q
n   0.58665022     Peri.  180.46863     +0.95618457     -0.27814882
a   1.4132421      Node   196.57893     +0.26963702     +0.95823161
e   0.2616597      Incl.   18.67133     +0.11404801     +0.06652374
P   1.68           H   2... 
							 
							
						 
						
					
				 | 
				
					
						Blobrana
					 | 
				
				
					
						1
					 | 
				
				
				
					
						
					 | 
				
				
					
						
					 | 
				
			
		
			
			
				
				
					
						 
					 | 
				
				
				
					
						
					 | 
				
				
				
					
					
					Asteroid 2014 SD304
					
					
					
					
						
					
					
						
							(Preview)
						
						
						
						
							
						
							
								The 27 - 61 metre wide asteroid 2014 SD304 will make a close pass (26.9 lunar distances, 0.0691 AU) travelling at 1.98 km/second, to the Earth-Moon system on the 12th October 2014 @ 21:15 UT ±00:04.  See more The Lunar Distance (LD), the distance between Earth and the Moon, equals 384,401 km, (or 0.002...  
							 
							
						 
						
					
				 | 
				
					
						Blobrana
					 | 
				
				
					
						0
					 | 
				
				
				
					
						
					 | 
				
				
					
						
					 | 
				
			
		
			
			
				
				
					
						 
					 | 
				
				
				
					
						
					 | 
				
				
				
					
					
					Asteroid 2014 TJ17
					
					
					
					
						
					
					
						
							(Preview)
						
						
						
						
							
						
							
								The 28 - 62 metre wide asteroid 2014 TJ17 will make a close pass (14.6 lunar distances, 0.0376 AU) travelling at 8.68 km/second, to the Earth-Moon system on the 12th October 2014 @ 17:16 UT ±00:01.  See more The Lunar Distance (LD), the distance between Earth and the Moon, equals 384,401 km, (or 0.0025...  
							 
							
						 
						
					
				 | 
				
					
						Blobrana
					 | 
				
				
					
						0
					 | 
				
				
				
					
						
					 | 
				
				
					
						
					 | 
				
			
		
			
			
				
				
					
						 
					 | 
				
				
				
					
						
					 | 
				
				
				
					
					
					Asteroid 2014 SC304
					
					
					
					
						
					
					
						
							(Preview)
						
						
						
						
							
						
							
								The 62 - 140 metre wide asteroid 2014 SC304 will make a close pass (48.9 lunar distances, 0.1257 AU) travelling at 14.79 km/second, to the Earth-Moon system on the 11th October 2014 @ 03:49 UT ±00:01.  See more The Lunar Distance (LD), the distance between Earth and the Moon, equals 384,401 km, (or 0.0...  
							 
							
						 
						
					
				 | 
				
					
						Blobrana
					 | 
				
				
					
						0
					 | 
				
				
				
					
						
					 | 
				
				
					
						
					 | 
				
			
		
			
			
				
				
					
						 
					 | 
				
				
				
					
						
					 | 
				
				
				
					
					
					Asteroid 2014 TR
					
					
					
					
						
					
					
						
							(Preview)
						
						
						
						
							
						
							
								The 9 - 21 metre wide asteroid 2014 TR will make a close pass (9.9 lunar distances, 0.0253 AU) travelling at 4.38 km/second, to the Earth-Moon system on the 11th October 2014 @ 14:36 UT ±00:03.  See more The Lunar Distance (LD), the distance between Earth and the Moon, equals 384,401 km, (or 0.00256 AU)... 
							 
							
						 
						
					
				 | 
				
					
						Blobrana
					 | 
				
				
					
						0
					 | 
				
				
				
					
						
					 | 
				
				
					
						
					 | 
				
			
		
			
			
				
				
					
						 
					 | 
				
				
				
					
						
					 | 
				
				
				
					
					
					Asteroid 2014 TT
					
					
					
					
						
					
					
						
							(Preview)
						
						
						
						
							
						
							
								The 24 - 53 metre wide asteroid 2014 TT will make a close pass (35.2 lunar distances, 0.0905 AU) travelling at 8.84 km/second, to the Earth-Moon system on the 10th October 2014 @ 04:30 UT ±00:21.  See more The Lunar Distance (LD), the distance between Earth and the Moon, equals 384,401 km, (or 0.00256 A... 
							 
							
						 
						
					
				 | 
				
					
						Blobrana
					 | 
				
				
					
						0
					 | 
				
				
				
					
						
					 | 
				
				
					
						
					 | 
				
			
		
			
			
				
				
					
						 
					 | 
				
				
				
					
						
					 | 
				
				
				
					
					
					Asteroid (18399) 1992 WK1
					
					
					
					
						
					
					
						
							(Preview)
						
						
						
						
							
						
							
								On 2014 Oct 10, asteroid (18399) 1992 WK1 will occult a 6.4 mag star in the constellation Sculptor for observers along a path across SE Australia. Read more 
							 
							
						 
						
					
				 | 
				
					
						Blobrana
					 | 
				
				
					
						0
					 | 
				
				
				
					
						
					 | 
				
				
					
						
					 | 
				
			
		
			
			
				
				
					
						 
					 | 
				
				
				
					
						
					 | 
				
				
				
					
					
					Asteroid 2014 SM142
					
					
					
					
						
					
					
						
							(Preview)
						
						
						
						
							
						
							
								The 87 - 190 metre wide asteroid 2014 SM142 will make a close pass (47.2 lunar distances, 0.1212 AU) travelling at 17.51 km/second, to the Earth-Moon system on the 8th October 2014 @ 19:15 UT ±00:01.  See more The Lunar Distance (LD), the distance between Earth and the Moon, equals 384,401 km, (or 0.00...  
							 
							
						 
						
					
				 | 
				
					
						Blobrana
					 | 
				
				
					
						0
					 | 
				
				
				
					
						
					 | 
				
				
					
						
					 |